TimePST,TemperatureF,Dew PointF,Humidity,Sea Level PressureIn,VisibilityMPH,Wind Direction,Wind SpeedMPH,Gust SpeedMPH,PrecipitationIn,Events,Conditions,WindDirDegrees,DateUTC
12:53 AM,64.0,30.0,28,29.80,10.0,West,9.2,-,N/A,,Clear,260,2013-11-03 07:53:00
1:53 AM,63.0,30.0,29,29.79,10.0,WSW,6.9,-,N/A,,Clear,250,2013-11-03 08:53:00
1:53 AM,62.1,30.9,31,29.78,10.0,NNW,5.8,-,N/A,,Clear,340,2013-11-03 09:53:00
2:53 AM,59.0,27.0,29,29.77,10.0,Calm,Calm,-,N/A,,Clear,0,2013-11-03 10:53:00
3:53 AM,55.9,28.9,36,29.77,10.0,SSW,4.6,-,N/A,,Clear,210,2013-11-03 11:53:00
4:53 AM,53.1,30.0,41,29.78,10.0,Calm,Calm,-,N/A,,Clear,0,2013-11-03 12:53:00
5:53 AM,53.1,30.0,41,29.78,10.0,Calm,Calm,-,N/A,,Clear,0,2013-11-03 13:53:00
6:53 AM,55.9,32.0,40,29.80,6.0,South,3.5,-,N/A,,Haze,190,2013-11-03 14:53:00
7:53 AM,66.0,34.0,30,29.82,10.0,SSW,6.9,-,N/A,,Clear,210,2013-11-03 15:53:00
8:53 AM,73.0,34.0,24,29.82,10.0,NW,3.5,-,N/A,,Clear,310,2013-11-03 16:53:00
9:53 AM,77.0,34.0,21,29.81,10.0,SSW,3.5,-,N/A,,Clear,210,2013-11-03 17:53:00
10:53 AM,80.1,30.9,17,29.79,10.0,West,3.5,-,N/A,,Clear,260,2013-11-03 18:53:00
11:53 AM,82.0,28.0,14,29.76,10.0,Variable,4.6,-,N/A,,Clear,0,2013-11-03 19:53:00
12:53 PM,84.0,28.9,14,29.73,10.0,Calm,Calm,-,N/A,,Clear,0,2013-11-03 20:53:00
1:53 PM,84.0,26.1,12,29.71,10.0,WNW,3.5,-,N/A,,Clear,300,2013-11-03 21:53:00
2:53 PM,86.0,28.0,12,29.69,10.0,ENE,4.6,-,N/A,,Clear,70,2013-11-03 22:53:00
3:53 PM,82.9,30.9,15,29.69,10.0,ENE,6.9,-,N/A,,Clear,70,2013-11-03 23:53:00
4:53 PM,79.0,36.0,21,29.69,10.0,SE,4.6,-,N/A,,Clear,140,2013-11-04 00:53:00
5:53 PM,75.0,35.1,23,29.70,10.0,WSW,11.5,-,N/A,,Clear,250,2013-11-04 01:53:00
6:53 PM,68.0,37.0,32,29.71,10.0,West,9.2,-,N/A,,Clear,260,2013-11-04 02:53:00
7:53 PM,66.9,42.1,40,29.72,10.0,WSW,9.2,-,N/A,,Clear,240,2013-11-04 03:53:00
8:53 PM,64.9,44.1,47,29.73,10.0,WSW,9.2,-,N/A,,Clear,250,2013-11-04 04:53:00
9:53 PM,61.0,43.0,52,29.73,10.0,West,5.8,-,N/A,,Clear,270,2013-11-04 05:53:00
10:53 PM,59.0,42.1,53,29.72,10.0,West,6.9,-,N/A,,Clear,260,2013-11-04 06:53:00